Regional Weather Roundup
Issued by NWS

Home | Current Version | Previous Version | Text Only | Print | Product List | Glossary On
Versions: 1 2 3 4 5 6 7 8 9 10 11 12 13 14 15 16 17 18 19 20 21 22 23 24 25 26 27 28 29 30 31 32 33 34 35 36 37 38 39 40 41 42 43 44 45 46 47 48 49 50
000
ASUS44 KJAN 272320
RWRMS

MISSISSIPPI HOURLY WEATHER ROUNDUP
NATIONAL WEATHER SERVICE JACKSON MS
600 PM CDT WED JUL 27 2016

NOTE: "FAIR: INDICATES FEW OR NO CLOUDS BELOW 12,000 FEET WITH NO
SIGNIFICANT WEATHER AND/OR OBSTRUCTIONS TO VISIBILITY.

MSZ001>002-007>008-010>013-018>021-025>028-034>036-280000-
NORTHWEST MISSISSIPPI

CITY           SKY/WX    TMP DP  RH WIND       PRES   REMARKS
CLEVELAND      CLOUDY    78  78 100 S7        29.90F
GREENWOOD      PTSUNNY   81  76  84 S10       29.92F
GREENVILLE     LGT RAIN  78  74  87 SW8       29.91S
OXFORD         FAIR      75  73  94 SE7       29.94F
WINONA         FAIR      78  73  86 SW8       29.94S
$$

MSZ003>006-009-014>017-022>024-029>033-037>039-280000-
NORTHEAST MISSISSIPPI

CITY           SKY/WX    TMP DP  RH WIND       PRES   REMARKS
ABERDEEN       FAIR      81  63  54 S8        29.96S
COLUMBUS AFB   CLOUDY    78  76  94 S8        29.94S
GOLDN TRIANGLE MOSUNNY   79  72  78 S7        29.95S
TUPELO         CLOUDY    82  75  79 S15G21    29.93R
$$

MSZ040-058-280000-
CENTRAL MISSISSIPPI

CITY           SKY/WX    TMP DP  RH WIND       PRES   REMARKS
JACKSON INTL   LGT RAIN  77  73  87 SW13      29.97R
JACKSON HAWKNS NOT AVBL
MADISON        CLOUDY    75  72  88 SW7       29.96S
MERIDIAN KEY   CLOUDY    78  74  87 S8        29.99F
MERIDIAN NAS   LGT RAIN  81  71  71 SW10G18   29.98S
VICKSBURG VKS  PTCLDY    79  73  83 VRB6      29.96F
$$

MSZ059>079-280000-
SOUTH MISSISSIPPI

CITY           SKY/WX    TMP DP  RH WIND       PRES   REMARKS
COLUMBIA       FAIR      79  73  83 SW7       30.05S
HATTIESBURG    CLOUDY    81  72  74 SW10      30.02S
MCCOMB         CLOUDY    77  73  87 S6        30.01S
NATCHEZ        CLOUDY    79  73  83 S6        29.97F
PINE BELT      CLOUDY    79  72  78 SW3       30.03S
$$

MSZ080>082-280000-
COASTAL MISSISSIPPI

CITY           SKY/WX    TMP DP  RH WIND       PRES   REMARKS
BILOXI         PTSUNNY   81  75  83 VRB5      30.02S
PASCAGOULA     MOSUNNY   84  79  85 VRB6      30.03S HX  96
GULFPORT       CLOUDY    84  73  69 SW6       30.02S HX  90
$$

LAZ007>009-015>016-023>026-280000-
NORTHEAST LOUISIANA

CITY           SKY/WX    TMP DP  RH WIND       PRES   REMARKS
BASTROP        FAIR      85  74  69 SW13G18   29.93S HX  92
TALLULAH/VBURG CLOUDY    78  74  87 VRB7      29.95F
VIDALIA        FAIR      78  75  91 CALM      29.99F
$$




USA.gov is the U.S. government's official web portal to all federal, state and local government web resources and services.